Meteo pe oră la Bolshie Saly

Astăzi, 9 Mai, Duminică

Timp Temperatura Precipitaţii Vânt Presiune Umiditate
00:00 +16°C° 0.2 mm 2 m/s 748 mmHg 85%
01:00 +14°C° 0 mm 4 m/s 748 mmHg 85%
02:00 +13°C° 0 mm 5 m/s 748 mmHg 85%
03:00 +11°C° 0 mm 6 m/s 749 mmHg 85%
04:00 +10°C° 0.8 mm 7 m/s 749 mmHg 86%
05:00 +8°C° 0.8 mm 7 m/s 749 mmHg 88%
06:00 +6°C° 0.8 mm 7 m/s 750 mmHg 89%
07:00 +6°C° 0.5 mm 7 m/s 750 mmHg 88%
08:00 +5°C° 0.5 mm 7 m/s 751 mmHg 87%
09:00 +5°C° 0.5 mm 7 m/s 752 mmHg 86%
10:00 +6°C° 0.2 mm 7 m/s 752 mmHg 81%
11:00 +8°C° 0.2 mm 7 m/s 752 mmHg 76%
12:00 +8°C° 0.2 mm 7 m/s 753 mmHg 71%
13:00 +9°C° 0 mm 6 m/s 753 mmHg 66%
14:00 +10°C° 0 mm 6 m/s 754 mmHg 61%
15:00 +11°C° 0 mm 6 m/s 754 mmHg 55%
16:00 +12°C° 0 mm 5 m/s 755 mmHg 56%
17:00 +12°C° 0 mm 4 m/s 755 mmHg 57%
18:00 +11°C° 0 mm 4 m/s 756 mmHg 59%
19:00 +11°C° 0.1 mm 3 m/s 756 mmHg 61%
20:00 +10°C° 0.1 mm 3 m/s 757 mmHg 64%
21:00 +9°C° 0.1 mm 3 m/s 757 mmHg 67%
22:00 +8°C° 0 mm 3 m/s 757 mmHg 70%
23:00 +8°C° 0 mm 3 m/s 758 mmHg 72%

Mâine, 10 Mai, Luni

Timp Temperatura Precipitaţii Vânt Presiune Umiditate
00:00 +7°C° 0 mm 3 m/s 758 mmHg 75%
01:00 +7°C° 0 mm 3 m/s 758 mmHg 75%
02:00 +5°C° 0 mm 4 m/s 758 mmHg 74%
03:00 +5°C° 0 mm 4 m/s 758 mmHg 74%
04:00 +5°C° 0 mm 4 m/s 758 mmHg 74%
05:00 +5°C° 0 mm 4 m/s 758 mmHg 75%
06:00 +5°C° 0 mm 5 m/s 758 mmHg 75%
07:00 +6°C° 0 mm 5 m/s 758 mmHg 71%
08:00 +7°C° 0 mm 5 m/s 757 mmHg 68%
09:00 +8°C° 0 mm 6 m/s 757 mmHg 64%
10:00 +8°C° 0.6 mm 6 m/s 757 mmHg 70%
11:00 +7°C° 0.6 mm 6 m/s 757 mmHg 76%
12:00 +7°C° 0.6 mm 6 m/s 756 mmHg 82%
13:00 +7°C° 0.9 mm 6 m/s 756 mmHg 83%
14:00 +7°C° 0.9 mm 6 m/s 756 mmHg 84%
15:00 +7°C° 0.9 mm 6 m/s 755 mmHg 85%
16:00 +7°C° 1.2 mm 6 m/s 755 mmHg 87%
17:00 +5°C° 1.2 mm 6 m/s 754 mmHg 89%
18:00 +5°C° 1.2 mm 7 m/s 754 mmHg 91%
19:00 +5°C° 2.8 mm 6 m/s 753 mmHg 92%
20:00 +5°C° 2.8 mm 6 m/s 752 mmHg 93%
21:00 +5°C° 2.8 mm 6 m/s 751 mmHg 94%
22:00 +6°C° 2.7 mm 5 m/s 750 mmHg 95%
23:00 +7°C° 2.7 mm 5 m/s 749 mmHg 96%

Poimâine, 11 Mai, Marţi

Timp Temperatura Precipitaţii Vânt Presiune Umiditate
00:00 +7°C° 2.7 mm 5 m/s 748 mmHg 96%
01:00 +7°C° 0.4 mm 4 m/s 748 mmHg 97%
02:00 +7°C° 0.4 mm 4 m/s 748 mmHg 97%
03:00 +7°C° 0.4 mm 4 m/s 748 mmHg 97%
04:00 +7°C° 0.1 mm 5 m/s 748 mmHg 97%
05:00 +5°C° 0.1 mm 6 m/s 748 mmHg 96%
06:00 +5°C° 0.1 mm 7 m/s 749 mmHg 95%
07:00 +5°C° 0.1 mm 7 m/s 749 mmHg 95%
08:00 +5°C° 0.1 mm 7 m/s 749 mmHg 94%
09:00 +5°C° 0.1 mm 7 m/s 749 mmHg 93%
10:00 +5°C° 0.2 mm 8 m/s 749 mmHg 93%
11:00 +4°C° 0.2 mm 8 m/s 749 mmHg 92%
12:00 +4°C° 0.2 mm 8 m/s 749 mmHg 92%
13:00 +5°C° 0.2 mm 8 m/s 750 mmHg 91%
14:00 +5°C° 0.2 mm 7 m/s 750 mmHg 91%
15:00 +6°C° 0.2 mm 7 m/s 751 mmHg 90%
16:00 +7°C° 0.1 mm 6 m/s 752 mmHg 90%
17:00 +7°C° 0.1 mm 6 m/s 753 mmHg 90%
18:00 +8°C° 0.1 mm 5 m/s 754 mmHg 90%
19:00 +8°C° 0.1 mm 6 m/s 754 mmHg 91%
20:00 +7°C° 0.1 mm 6 m/s 755 mmHg 92%
21:00 +7°C° 0.1 mm 6 m/s 755 mmHg 93%
22:00 +6°C° 0.4 mm 7 m/s 755 mmHg 92%
23:00 +6°C° 0.4 mm 7 m/s 756 mmHg 91%

12 Mai, Miercuri

Timp Temperatura Precipitaţii Vânt Presiune Umiditate
00:00 +6°C° 0.4 mm 7 m/s 756 mmHg 90%
01:00 +7°C° 1.1 mm 6 m/s 756 mmHg 92%
02:00 +7°C° 1.1 mm 5 m/s 756 mmHg 94%
03:00 +6°C° 1.1 mm 4 m/s 756 mmHg 96%
04:00 +7°C° 0.6 mm 3 m/s 756 mmHg 96%
05:00 +7°C° 0.6 mm 3 m/s 756 mmHg 96%
06:00 +7°C° 0.6 mm 2 m/s 756 mmHg 95%
07:00 +9°C° 0 mm 3 m/s 756 mmHg 91%
08:00 +10°C° 0 mm 4 m/s 756 mmHg 86%
09:00 +10°C° 0 mm 5 m/s 755 mmHg 81%
10:00 +13°C° 0 mm 6 m/s 755 mmHg 74%
11:00 +15°C° 0 mm 6 m/s 755 mmHg 67%
12:00 +17°C° 0 mm 7 m/s 755 mmHg 59%
13:00 +17°C° 0 mm 7 m/s 755 mmHg 59%
14:00 +18°C° 0 mm 7 m/s 755 mmHg 58%
15:00 +19°C° 0 mm 6 m/s 755 mmHg 57%
16:00 +19°C° 0 mm 6 m/s 755 mmHg 61%
17:00 +17°C° 0 mm 5 m/s 754 mmHg 65%
18:00 +18°C° 0 mm 4 m/s 754 mmHg 69%
19:00 +15°C° 0 mm 4 m/s 754 mmHg 73%
20:00 +14°C° 0 mm 4 m/s 754 mmHg 78%
21:00 +13°C° 0 mm 3 m/s 754 mmHg 82%
22:00 +12°C° 0 mm 3 m/s 754 mmHg 82%
23:00 +12°C° 0 mm 3 m/s 754 mmHg 82%

13 Mai, Joi

Timp Temperatura Precipitaţii Vânt Presiune Umiditate
00:00 +11°C° 0 mm 3 m/s 754 mmHg 83%
01:00 +11°C° 0 mm 3 m/s 753 mmHg 83%
02:00 +10°C° 0 mm 3 m/s 753 mmHg 83%
03:00 +10°C° 0 mm 3 m/s 753 mmHg 83%
04:00 +10°C° 0 mm 3 m/s 753 mmHg 82%
05:00 +10°C° 0 mm 3 m/s 753 mmHg 82%
06:00 +10°C° 0 mm 3 m/s 753 mmHg 82%
07:00 +12°C° 0 mm 4 m/s 753 mmHg 76%
08:00 +14°C° 0 mm 4 m/s 754 mmHg 70%
09:00 +16°C° 0 mm 5 m/s 754 mmHg 64%
10:00 +19°C° 0 mm 5 m/s 753 mmHg 62%
11:00 +20°C° 0 mm 5 m/s 753 mmHg 60%
12:00 +22°C° 0 mm 6 m/s 753 mmHg 58%
13:00 +23°C° 0 mm 6 m/s 753 mmHg 57%
14:00 +23°C° 0 mm 6 m/s 753 mmHg 57%
15:00 +24°C° 0 mm 6 m/s 753 mmHg 56%
16:00 +23°C° 0 mm 6 m/s 753 mmHg 61%
17:00 +22°C° 0 mm 5 m/s 753 mmHg 66%
18:00 +22°C° 0 mm 5 m/s 753 mmHg 72%
19:00 +20°C° 0 mm 4 m/s 753 mmHg 76%
20:00 +19°C° 0 mm 4 m/s 753 mmHg 81%
21:00 +17°C° 0 mm 3 m/s 753 mmHg 86%
22:00 +17°C° 0 mm 4 m/s 753 mmHg 85%
23:00 +17°C° 0 mm 4 m/s 752 mmHg 84%

14 Mai, Vineri

Timp Temperatura Precipitaţii Vânt Presiune Umiditate
00:00 +15°C° 0 mm 4 m/s 752 mmHg 82%
01:00 +15°C° 0 mm 4 m/s 752 mmHg 83%
02:00 +15°C° 0 mm 4 m/s 752 mmHg 83%
03:00 +14°C° 0 mm 4 m/s 752 mmHg 83%
04:00 +14°C° 0 mm 4 m/s 752 mmHg 83%
05:00 +14°C° 0 mm 4 m/s 752 mmHg 84%
06:00 +14°C° 0 mm 3 m/s 752 mmHg 84%
07:00 +17°C° 0 mm 4 m/s 752 mmHg 79%
08:00 +19°C° 0 mm 4 m/s 753 mmHg 74%
09:00 +21°C° 0 mm 5 m/s 753 mmHg 68%
10:00 +22°C° 0 mm 5 m/s 753 mmHg 65%
11:00 +25°C° 0 mm 5 m/s 753 mmHg 62%
12:00 +26°C° 0 mm 5 m/s 753 mmHg 59%
13:00 +27°C° 0 mm 5 m/s 753 mmHg 57%
14:00 +28°C° 0 mm 5 m/s 752 mmHg 56%
15:00 +29°C° 0 mm 5 m/s 752 mmHg 55%
16:00 +28°C° 0 mm 5 m/s 752 mmHg 59%
17:00 +27°C° 0 mm 4 m/s 752 mmHg 64%
18:00 +27°C° 0 mm 4 m/s 752 mmHg 69%
19:00 +25°C° 0 mm 4 m/s 752 mmHg 74%
20:00 +22°C° 0 mm 3 m/s 752 mmHg 80%
21:00 +20°C° 0 mm 3 m/s 752 mmHg 86%
22:00 +20°C° 0 mm 3 m/s 752 mmHg 85%
23:00 +19°C° 0 mm 3 m/s 752 mmHg 85%
Arată mai mult

Formular de consimțământ

Meteoprog și furnizorii noștri de servicii pot stoca și accesa date personale, precum cookies, identificatori de dispozitiv sau alte tehnologii similare pe dispozitivul dumneavoastră și procesa astfel de date pentru a personaliza conținutul și reclamele, dar și pentru a oferi caracteristici de social media și pentru a analiza traficul.

  • Stocarea și/sau accesarea informațiilor pe dispozitivul dumneavoastră

    Cookies, identificatori de dispozitiv sau alte informații pot fi stocate sau accesate pe dispozitiv în scopurile indicate mai sus.

  • Reclame și conținut personalizat, evaluarea reclamelor și a conținutului, informații despre audiențe și dezvoltarea produselor

    Reclamele și conținutul pot fi personalizate pe baza unui profil. Pot fi adăugate date suplimentare pentru a personaliza mai bine reclamele și conținutul. Performanța reclamelor și conținutului poate fi măsurată. Pot fi obținute informații despre utilizatorii care au văzut reclamele și conținutul. Aceste date pot fi utilizate pentru a dezvolta sau îmbunătăți experiența utilizatorilor, sistemele și software-ul.

Dând clic pe ‘Sunt de acord’, permiteți utilizarea cookie-urilor menționate, a identificatorilor de dispozitiv, balizelor web sau altor tehnologii similare. Setările pot fi modificate din browser-ul dispozitivului dumneavoastră.

În anumite scopuri, interesele legitime pot prima asupra consimțământului. Puteți citi mai multe informații în acest sens în Politica privind Confidențialitatea Datelor și Cookie.